STARLINK-35505, 66329

Orbit data source: Space-Track

STARLINK-35505, 66329 is a payload satellite owned by SpaceX/Seattle (US) in LEO that was launched on Thu, 06 Nov 2025 UTC via an FALCON 9 launch vehicle from the Air Force Eastern Test Range (AFETR). Payload-class satellites include a variety of spacecraft equipped with specific instruments for various scientific and technological missions. These include communications satellites like Starlink; space stations such as the ISS; scientific satellites like the Hubble; Earth observation satellites from companies like Planet Labs, Umbra, and HawkEye 360; GPS; miniature CubeSats for education and research; and military/defense satellites.

Loading next visibility...
Identifier
66329, 2025-253L
Orbit
LEO
Country
Flag of USUS
Related business
Manufacturer
SpaceX/Seattle
Mission
Operational Commercial Communications
Bus & Motor
STARLINK V2MO, Unknown motor
Mass
575 kg wet, ~530 kg dry
Launch date (UTC)
2025-11-06 (7 months ago)
Launch vehicle
FALCON 9
Launch site
Air Force Eastern Test Range (AFETR)
Object type
Payload
Rocket body
Debris
Shape & HBR
Box + 2 Pan, 17.7 m
Radar Cross Section
36.964 m², Large (>1 m²)

Expand to show TLE details & history
Last TLE update: 13 hours ago

TLE from 13 hours ago
0 STARLINK-35505
1 66329U 25253L   26170.55645500  .00011911  00000-0  44158-3 0  9997
2 66329  43.0018 357.2202 0001248 269.7692  90.3016 15.27585826 35827
Epoch: 2026-06-19T13:21Z
TLE epoch observation values (Epoch: 2026-06-19T13:21:17.711Z)
Latitude
-0.00009°
Longitude
-110.88742°
Altitude
482.812 km
Speed
7.626 km/s
True Right ascension
23h 48m 52s
True Declination
0° 00' 00"
Sunlit
Object was in daylight at epoch
Visualization orbit readout
Latitude
Unknown
Longitude
Unknown
Altitude
Unknown
Speed
Unknown
Apparent Right ascension
Unknown
Apparent Declination
Unknown
Sunlit
N/A
Visualization observer readout
Local Sidereal Time
12:48:56
Azimuth
Unknown
Elevation
Unknown
Doppler factor
Unknown
Orbital elements
Apogee altitude
485.833 km
Perigee altitude
484.12 km
Semi-major axis
6,863.114 km
Eccentricity
0.00012
Inclination
43.0018°
RAAN
357.2202°
Arg. of periapsis
269.7692°
True anomaly
90.3159°
Mean anomaly
90.3016°
Eccentric anomaly
90.30875°
Mean motion
3.81734 °/min
Orbital period
94.31 mins
BSTAR
0.00044158
Loading maneuver chart data...
Computing Atmospheric mass density...
Loading historical data...
Loading historical data...
Loading historical data...
Loading historical data...
Loading historical data...
Loading historical data...
Loading historical data...

Documentation

Showing up to 5 results
|